Date String (YYYY-MM-DD hh:mm:ss) UTC,Instrument flags,absolute air pressure of the measurement (hPa),sample flow rate (lpm),inlet stack bypass flow (lpm),air temperature of the measurement (°C),ambient temperature measured by the external sensor (°C),aerosol sample conditioner tube jacket temperature (°C),OPC LED temperature (°C),internal box temperature (°C),relative humidity of the measurement (%),span deviation,mass concentration of particles derived from Lorenz-Mie calculation of OPC scattering (μg/m³),mass concentration of particles derived from Lorenz-Mie calculation of OPC scattering (μg/m³),mass concentration of particles derived from Lorenz-Mie calculation of OPC scattering (μg/m³)
DateTimeUTC,F1_M11,P_M11,Q1_M11,Q2_M11,T1_M11,T2_M11,T3_M11,T4_M11,T5_M11,U1_M11,ZSPAN_M11,X2_M11,X0_M11,X1_M11
2023-06-21 05:00:00,SystemResetWarning,0830.7,5.01,000.00,029.6,025.1,000.0,038.0,030.8,23.2,0000.0,0006.03,0016.05,0004.51
2023-06-21 05:01:00,SystemResetWarning,0830.7,5.01,000.00,029.5,025.5,000.0,038.0,030.8,23.4,0000.0,0006.06,0015.54,0004.51
2023-06-21 05:02:00,SystemResetWarning,0830.7,5.00,000.00,029.5,026.0,000.0,038.0,030.8,23.3,0000.0,0006.04,0015.32,0004.49
2023-06-21 05:03:00,SystemResetWarning,0830.7,5.00,000.00,029.5,026.4,000.0,038.0,030.8,23.4,0000.0,0006.05,0014.98,0004.49
2023-06-21 05:04:00,SystemResetWarning,0830.7,4.99,000.00,029.5,026.7,000.0,038.0,030.8,23.4,0000.0,0006.08,0014.87,0004.50
2023-06-21 05:05:00,SystemResetWarning,0830.7,5.00,000.00,029.5,027.0,000.0,038.0,030.8,23.5,0000.0,0006.08,0014.75,0004.49
2023-06-21 05:06:00,SystemResetWarning,0830.7,5.00,000.00,029.5,027.3,000.0,038.0,030.9,23.5,0000.0,0006.06,0014.74,0004.49
2023-06-21 05:07:00,SystemResetWarning,0830.7,5.00,000.00,029.5,027.5,000.0,038.0,030.9,23.5,0000.0,0006.06,0014.31,0004.50
2023-06-21 05:08:00,SystemResetWarning,0830.7,5.01,000.00,029.5,027.7,000.0,038.0,031.0,23.5,0000.0,0006.05,0013.67,0004.51
2023-06-21 05:09:00,SystemResetWarning,0830.7,5.01,000.00,029.5,027.8,000.0,038.0,031.0,23.6,0000.0,0006.08,0014.06,0004.51
2023-06-21 05:10:00,SystemResetWarning,0830.7,5.00,000.00,029.5,027.9,000.0,038.1,031.1,23.6,0000.0,0006.03,0014.16,0004.50
2023-06-21 05:11:00,SystemResetWarning,0830.7,5.00,000.00,029.6,028.0,000.0,038.1,031.1,23.3,0000.0,0005.97,0013.94,0004.49
2023-06-21 05:12:00,SystemResetWarning,0830.8,5.00,000.00,029.6,028.1,000.0,038.1,031.1,23.3,0000.0,0006.02,0014.39,0004.48
2023-06-21 05:13:00,SystemResetWarning,0830.8,5.00,000.00,029.6,028.2,000.0,038.1,031.2,23.2,0000.0,0006.06,0014.53,0004.48
2023-06-21 05:14:00,SystemResetWarning,0830.8,5.00,000.00,029.7,028.3,000.0,038.1,031.2,23.1,0000.0,0006.08,0015.15,0004.48
2023-06-21 05:15:00,SystemResetWarning,0830.8,5.00,000.00,029.7,028.3,000.0,038.1,031.3,23.3,0000.0,0006.04,0015.01,0004.47
2023-06-21 05:16:00,SystemResetWarning,0830.8,5.00,000.00,029.7,028.4,000.0,038.2,031.3,23.2,0000.0,0006.06,0015.58,0004.46
2023-06-21 05:17:00,SystemResetWarning,0830.8,4.99,000.00,029.8,028.0,000.0,038.2,031.3,23.0,0000.0,0006.05,0014.99,0004.46
2023-06-21 05:18:00,SystemResetWarning,0830.7,5.00,000.00,029.8,025.8,000.0,038.1,031.3,23.0,0000.0,0006.02,0014.71,0004.45
2023-06-21 05:19:00,SystemResetWarning,0830.7,5.02,000.00,029.7,024.8,000.0,038.1,031.2,23.0,0000.0,0006.02,0015.31,0004.45
2023-06-21 05:20:00,SystemResetWarning,0830.7,5.00,000.00,029.6,024.9,000.0,038.0,030.9,23.0,0000.0,0006.03,0015.74,0004.44
2023-06-21 05:21:00,SystemResetWarning,0830.7,4.99,000.00,029.5,025.3,000.0,038.1,030.8,23.2,0000.0,0006.10,0015.91,0004.44
2023-06-21 05:22:00,SystemResetWarning,0830.7,5.01,000.00,029.5,025.8,000.0,038.0,030.8,23.2,0000.0,0006.16,0015.91,0004.44
2023-06-21 05:23:00,SystemResetWarning,0830.7,4.99,000.00,029.5,026.2,000.0,038.0,030.8,23.2,0000.0,0006.14,0015.38,0004.45
2023-06-21 05:24:00,SystemResetWarning,0830.7,4.99,000.00,029.5,026.6,000.0,038.0,030.8,23.2,0000.0,0006.08,0015.16,0004.45
2023-06-21 05:25:00,SystemResetWarning,0830.7,5.00,000.00,029.5,026.9,000.0,038.0,030.9,23.2,0000.0,0006.14,0016.22,0004.46
2023-06-21 05:26:00,SystemResetWarning,0830.7,5.01,000.00,029.5,027.2,000.0,038.0,030.9,23.2,0000.0,0006.18,0017.24,0004.47
2023-06-21 05:27:00,SystemResetWarning,0830.7,4.99,000.00,029.5,027.4,000.0,038.1,030.9,23.2,0000.0,0006.15,0017.38,0004.47
2023-06-21 05:28:00,SystemResetWarning,0830.6,5.00,000.00,029.5,027.6,000.0,038.1,031.0,23.2,0000.0,0006.16,0018.17,0004.48
2023-06-21 05:29:00,SystemResetWarning,0830.7,5.00,000.00,029.5,027.7,000.0,038.1,031.0,23.1,0000.0,0006.27,0019.02,0004.49
2023-06-21 05:30:00,SystemResetWarning,0830.6,4.99,000.00,029.5,027.9,000.0,038.1,031.0,23.1,0000.0,0006.28,0018.91,0004.49
2023-06-21 05:31:00,SystemResetWarning,0830.7,5.00,000.00,029.6,028.0,000.0,038.1,031.1,23.1,0000.0,0006.23,0018.28,0004.50
2023-06-21 05:32:00,SystemResetWarning,0830.7,5.00,000.00,029.6,028.1,000.0,038.1,031.1,23.0,0000.0,0006.22,0018.43,0004.52
2023-06-21 05:33:00,SystemResetWarning,0830.6,5.01,000.00,029.6,028.2,000.0,038.1,031.2,23.0,0000.0,0006.19,0018.52,0004.52
2023-06-21 05:34:00,SystemResetWarning,0830.7,5.01,000.00,029.7,028.2,000.0,038.1,031.2,22.9,0000.0,0006.14,0018.83,0004.51
2023-06-21 05:35:00,SystemResetWarning,0830.6,5.00,000.00,029.7,028.3,000.0,038.2,031.2,22.8,0000.0,0006.20,0019.56,0004.51
2023-06-21 05:36:00,SystemResetWarning,0830.7,5.00,000.00,029.7,028.3,000.0,038.2,031.2,22.8,0000.0,0006.16,0018.34,0004.50
2023-06-21 05:37:00,SystemResetWarning,0830.6,4.99,000.00,029.8,028.4,000.0,038.2,031.3,22.7,0000.0,0006.17,0017.42,0004.49
2023-06-21 05:38:00,SystemResetWarning,0830.6,4.99,000.00,029.8,028.4,000.0,038.2,031.3,22.7,0000.0,0006.22,0016.73,0004.49
2023-06-21 05:39:00,SystemResetWarning,0830.7,5.00,000.00,029.8,028.4,000.0,038.2,031.4,22.7,0000.0,0006.19,0016.35,0004.48
2023-06-21 05:40:00,SystemResetWarning,0830.6,4.99,000.00,029.8,026.6,000.0,038.2,031.4,22.7,0000.0,0006.09,0016.88,0004.47
2023-06-21 05:41:00,SystemResetWarning,0830.6,5.00,000.00,029.8,024.9,000.0,038.1,031.3,22.7,0000.0,0006.08,0017.51,0004.48
2023-06-21 05:42:00,SystemResetWarning,0830.6,5.00,000.00,029.7,024.8,000.0,038.1,031.1,22.7,0000.0,0006.19,0018.85,0004.48
2023-06-21 05:43:00,SystemResetWarning,0830.6,5.01,000.00,029.6,025.2,000.0,038.1,030.9,22.8,0000.0,0006.20,0018.65,0004.46
2023-06-21 05:44:00,SystemResetWarning,0830.6,5.00,000.00,029.5,025.6,000.0,038.1,030.8,23.0,0000.0,0006.25,0018.45,0004.47
2023-06-21 05:45:00,SystemResetWarning,0830.6,5.00,000.00,029.5,026.1,000.0,038.1,030.8,23.0,0000.0,0006.33,0019.52,0004.49
2023-06-21 05:46:00,SystemResetWarning,0830.6,4.99,000.00,029.5,026.5,000.0,038.1,030.8,23.0,0000.0,0006.31,0019.25,0004.49
2023-06-21 05:47:00,SystemResetWarning,0830.6,4.99,000.00,029.5,026.8,000.0,038.1,030.8,22.8,0000.0,0006.30,0019.10,0004.51
2023-06-21 05:48:00,SystemResetWarning,0830.6,5.01,000.00,029.5,027.1,000.0,038.1,030.8,22.9,0000.0,0006.30,0019.33,0004.53
2023-06-21 05:49:00,SystemResetWarning,0830.6,5.00,000.00,029.5,027.3,000.0,038.1,030.9,22.9,0000.0,0006.33,0020.03,0004.57
2023-06-21 05:50:00,SystemResetWarning,0830.6,5.01,000.00,029.5,027.5,000.0,038.1,030.9,22.9,0000.0,0006.40,0020.01,0004.58
2023-06-21 05:51:00,SystemResetWarning,0830.6,5.00,000.00,029.5,027.7,000.0,038.1,031.0,22.8,0000.0,0006.47,0019.68,0004.59
2023-06-21 05:52:00,SystemResetWarning,0830.6,5.00,000.00,029.6,027.8,000.0,038.1,031.0,22.7,0000.0,0006.50,0019.13,0004.60
2023-06-21 05:53:00,SystemResetWarning,0830.6,5.00,000.00,029.6,027.9,000.0,038.1,031.1,22.7,0000.0,0006.50,0018.60,0004.60
2023-06-21 05:54:00,SystemResetWarning,0830.6,5.00,000.00,029.6,028.0,000.0,038.1,031.1,22.6,0000.0,0006.43,0018.11,0004.61
2023-06-21 05:55:00,SystemResetWarning,0830.6,5.00,000.00,029.6,028.1,000.0,038.1,031.1,22.6,0000.0,0006.41,0018.21,0004.60
2023-06-21 05:56:00,SystemResetWarning,0830.6,5.00,000.00,029.7,028.1,000.0,038.2,031.2,22.5,0000.0,0006.32,0017.44,0004.59
2023-06-21 05:57:00,SystemResetWarning,0830.6,5.00,000.00,029.7,028.2,000.0,038.2,031.2,22.5,0000.0,0006.26,0016.77,0004.59
2023-06-21 05:58:00,SystemResetWarning,0830.6,5.00,000.00,029.7,028.3,000.0,038.2,031.2,22.5,0000.0,0006.30,0016.70,0004.61
2023-06-21 05:59:00,SystemResetWarning,0830.6,5.00,000.00,029.7,028.3,000.0,038.2,031.2,22.5,0000.0,0006.35,0016.64,0004.61
